����������;��������(kVARh)
2019-01-14 00:00;0
2019-01-14 00:15;0,15
2019-01-14 00:30;0
2019-01-14 00:45;0
2019-01-14 01:00;0
2019-01-14 01:15;0
2019-01-14 01:30;0,1
2019-01-14 01:45;2,05
2019-01-14 02:00;1,55
2019-01-14 02:15;1,15
2019-01-14 02:30;2
2019-01-14 02:45;1,7
2019-01-14 03:00;1,65
2019-01-14 03:15;5,3
2019-01-14 03:30;5,3
2019-01-14 03:45;5,4
2019-01-14 04:00;4,55
2019-01-14 04:15;4,9
2019-01-14 04:30;5,7
2019-01-14 04:45;6,35
2019-01-14 05:00;6,4
2019-01-14 05:15;5,65
2019-01-14 05:30;10,1
2019-01-14 05:45;25,6
2019-01-14 06:00;24,45
2019-01-14 06:15;27
2019-01-14 06:30;26,75
2019-01-14 06:45;24,45
2019-01-14 07:00;19,85
2019-01-14 07:15;22,25
2019-01-14 07:30;55,65
2019-01-14 07:45;51,05
2019-01-14 08:00;37,35
2019-01-14 08:15;38,05
2019-01-14 08:30;42,85
2019-01-14 08:45;57,9
2019-01-14 09:00;63,5
2019-01-14 09:15;66,3
2019-01-14 09:30;72,7
2019-01-14 09:45;75,05
2019-01-14 10:00;77,35
2019-01-14 10:15;81,65
2019-01-14 10:30;87,8
2019-01-14 10:45;95,15
2019-01-14 11:00;89,2
2019-01-14 11:15;98,4
2019-01-14 11:30;93,05
2019-01-14 11:45;85,7
2019-01-14 12:00;85,45
2019-01-14 12:15;86,9
2019-01-14 12:30;110,55
2019-01-14 12:45;122,25
2019-01-14 13:00;113,4
2019-01-14 13:15;95,8
2019-01-14 13:30;100,9
2019-01-14 13:45;106,8
2019-01-14 14:00;112,4
2019-01-14 14:15;90,1
2019-01-14 14:30;86,9
2019-01-14 14:45;86,1
2019-01-14 15:00;85,8
2019-01-14 15:15;117,1
2019-01-14 15:30;103
2019-01-14 15:45;90,3
2019-01-14 16:00;82,45
2019-01-14 16:15;81
2019-01-14 16:30;83,3
2019-01-14 16:45;69,9
2019-01-14 17:00;60
2019-01-14 17:15;54,15
2019-01-14 17:30;51,9
2019-01-14 17:45;48
2019-01-14 18:00;47,7
2019-01-14 18:15;42,9
2019-01-14 18:30;42
2019-01-14 18:45;41,6
2019-01-14 19:00;39,95
2019-01-14 19:15;32,25
2019-01-14 19:30;25,75
2019-01-14 19:45;24,45
2019-01-14 20:00;21,6
2019-01-14 20:15;15,8
2019-01-14 20:30;16,2
2019-01-14 20:45;15,65
2019-01-14 21:00;15,75
2019-01-14 21:15;14,4
2019-01-14 21:30;14
2019-01-14 21:45;10
2019-01-14 22:00;7,65
2019-01-14 22:15;9,8
2019-01-14 22:30;10,6
2019-01-14 22:45;11,15
2019-01-14 23:00;10,05
2019-01-14 23:15;1,85
2019-01-14 23:30;0,3
2019-01-14 23:45;0,45
2019-01-15 00:00;0
2019-01-15 00:15;0
2019-01-15 00:30;0
2019-01-15 00:45;0
2019-01-15 01:00;0
2019-01-15 01:15;0
2019-01-15 01:30;0
2019-01-15 01:45;0
2019-01-15 02:00;0,15
2019-01-15 02:15;0
2019-01-15 02:30;0,1
2019-01-15 02:45;0,1
2019-01-15 03:00;0,2
2019-01-15 03:15;0,35
2019-01-15 03:30;1,05
2019-01-15 03:45;3,55
2019-01-15 04:00;12,75
2019-01-15 04:15;13,05
2019-01-15 04:30;14,3
2019-01-15 04:45;14,85
2019-01-15 05:00;15,3
2019-01-15 05:15;14,6
2019-01-15 05:30;14,05
2019-01-15 05:45;16,25
2019-01-15 06:00;27,25
2019-01-15 06:15;27,7
2019-01-15 06:30;28,15
2019-01-15 06:45;28,35
2019-01-15 07:00;36,4
2019-01-15 07:15;36,6
2019-01-15 07:30;63,75
2019-01-15 07:45;64,25
2019-01-15 08:00;78,7
2019-01-15 08:15;44,7
2019-01-15 08:30;55,3
2019-01-15 08:45;53,25
2019-01-15 09:00;58,15
2019-01-15 09:15;68,55
2019-01-15 09:30;69,85
2019-01-15 09:45;72,6
2019-01-15 10:00;65,25
2019-01-15 10:15;68,65
2019-01-15 10:30;75,7
2019-01-15 10:45;94,9
2019-01-15 11:00;126,65
2019-01-15 11:15;94,7
2019-01-15 11:30;94,25
2019-01-15 11:45;131,85
2019-01-15 12:00;110,55
2019-01-15 12:15;117,25
2019-01-15 12:30;104,8
2019-01-15 12:45;125,1
2019-01-15 13:00;110,6
2019-01-15 13:15;98,8
2019-01-15 13:30;101,2
2019-01-15 13:45;115,95
2019-01-15 14:00;135,95
2019-01-15 14:15;109,65
2019-01-15 14:30;111,2
2019-01-15 14:45;102,05
2019-01-15 15:00;93
2019-01-15 15:15;85,95
2019-01-15 15:30;115,45
2019-01-15 15:45;89,3
2019-01-15 16:00;75,05
2019-01-15 16:15;75,45
2019-01-15 16:30;77,95
2019-01-15 16:45;109,1
2019-01-15 17:00;75,85
2019-01-15 17:15;60,75
2019-01-15 17:30;51,15
2019-01-15 17:45;49,6
2019-01-15 18:00;46,05
2019-01-15 18:15;43,15
2019-01-15 18:30;42,6
2019-01-15 18:45;39,95
2019-01-15 19:00;39,9
2019-01-15 19:15;37,25
2019-01-15 19:30;34,3
2019-01-15 19:45;35,05
2019-01-15 20:00;31,2
2019-01-15 20:15;30,55
2019-01-15 20:30;31,45
2019-01-15 20:45;30
2019-01-15 21:00;31,05
2019-01-15 21:15;31,3
2019-01-15 21:30;32,75
2019-01-15 21:45;31,9
2019-01-15 22:00;28,45
2019-01-15 22:15;34,4
2019-01-15 22:30;34,5
2019-01-15 22:45;33,1
2019-01-15 23:00;34,1
2019-01-15 23:15;20,3
2019-01-15 23:30;5,2
2019-01-15 23:45;3,15
2019-01-16 00:00;0,1
2019-01-16 00:15;0,1
2019-01-16 00:30;1,3
2019-01-16 00:45;2,15
2019-01-16 01:00;4,35
2019-01-16 01:15;12,15
2019-01-16 01:30;13,5
2019-01-16 01:45;13,8
2019-01-16 02:00;14,6
2019-01-16 02:15;11,2
2019-01-16 02:30;15,35
2019-01-16 02:45;15,15
2019-01-16 03:00;17,35
2019-01-16 03:15;17,95
2019-01-16 03:30;17,35
2019-01-16 03:45;17,55
2019-01-16 04:00;16,6
2019-01-16 04:15;15,9
2019-01-16 04:30;16,85
2019-01-16 04:45;15,65
2019-01-16 05:00;13,8
2019-01-16 05:15;15,6
2019-01-16 05:30;15,55
2019-01-16 05:45;16,75
2019-01-16 06:00;15
2019-01-16 06:15;28,8
2019-01-16 06:30;31
2019-01-16 06:45;28,15
2019-01-16 07:00;30,75
2019-01-16 07:15;33,9
2019-01-16 07:30;40,8
2019-01-16 07:45;52,6
2019-01-16 08:00;69,4
2019-01-16 08:15;80,8
2019-01-16 08:30;86,1
2019-01-16 08:45;84
2019-01-16 09:00;66,5
2019-01-16 09:15;60,85
2019-01-16 09:30;62,8
2019-01-16 09:45;66,7
2019-01-16 10:00;102,05
2019-01-16 10:15;94,55
2019-01-16 10:30;77
2019-01-16 10:45;86,65
2019-01-16 11:00;87,9
2019-01-16 11:15;114,4
2019-01-16 11:30;125,15
2019-01-16 11:45;93,75
2019-01-16 12:00;96,9
2019-01-16 12:15;96,85
2019-01-16 12:30;98,05
2019-01-16 12:45;113,5
2019-01-16 13:00;134
2019-01-16 13:15;103,5
2019-01-16 13:30;91,75
2019-01-16 13:45;93,5
2019-01-16 14:00;91,6
2019-01-16 14:15;91,75
2019-01-16 14:30;129,6
2019-01-16 14:45;108
2019-01-16 15:00;85,25
2019-01-16 15:15;78,75
2019-01-16 15:30;76,45
2019-01-16 15:45;94
2019-01-16 16:00;93,25
2019-01-16 16:15;70
2019-01-16 16:30;66,75
2019-01-16 16:45;62,25
2019-01-16 17:00;84,85
2019-01-16 17:15;68,15
2019-01-16 17:30;50,5
2019-01-16 17:45;46,3
2019-01-16 18:00;42,2
2019-01-16 18:15;39,6
2019-01-16 18:30;37,7
2019-01-16 18:45;34
2019-01-16 19:00;33,45
2019-01-16 19:15;33,25
2019-01-16 19:30;31,2
2019-01-16 19:45;33,2
2019-01-16 20:00;26,25
2019-01-16 20:15;19,1
2019-01-16 20:30;15,35
2019-01-16 20:45;14,85
2019-01-16 21:00;14,35
2019-01-16 21:15;15,25
2019-01-16 21:30;14,6
2019-01-16 21:45;9,55
2019-01-16 22:00;9,55
2019-01-16 22:15;8,45
2019-01-16 22:30;11,9
2019-01-16 22:45;12,15
2019-01-16 23:00;14,1
2019-01-16 23:15;13,5
2019-01-16 23:30;17,95
2019-01-16 23:45;12,25
2019-01-17 00:00;4,3
2019-01-17 00:15;7
2019-01-17 00:30;4,65
2019-01-17 00:45;0
2019-01-17 01:00;0,1
2019-01-17 01:15;0,3
2019-01-17 01:30;5,65
2019-01-17 01:45;10,65
2019-01-17 02:00;12,85
2019-01-17 02:15;12,75
2019-01-17 02:30;13,3
2019-01-17 02:45;15,25
2019-01-17 03:00;15,35
2019-01-17 03:15;15,45
2019-01-17 03:30;15,6
2019-01-17 03:45;14,05
2019-01-17 04:00;10,35
2019-01-17 04:15;7,5
2019-01-17 04:30;8,25
2019-01-17 04:45;9,4
2019-01-17 05:00;9,7
2019-01-17 05:15;9,95
2019-01-17 05:30;10,65
2019-01-17 05:45;9,65
2019-01-17 06:00;7,45
2019-01-17 06:15;6,9
2019-01-17 06:30;5,7
2019-01-17 06:45;17,5
2019-01-17 07:00;21,75
2019-01-17 07:15;28,25
2019-01-17 07:30;32,5
2019-01-17 07:45;34,8
2019-01-17 08:00;59
2019-01-17 08:15;67,5
2019-01-17 08:30;67,7
2019-01-17 08:45;48,6
2019-01-17 09:00;60,9
2019-01-17 09:15;50,5
2019-01-17 09:30;50,85
2019-01-17 09:45;62,85
2019-01-17 10:00;62,8
2019-01-17 10:15;68,7
2019-01-17 10:30;70,9
2019-01-17 10:45;86,8
2019-01-17 11:00;116,55
2019-01-17 11:15;98,05
2019-01-17 11:30;94,15
2019-01-17 11:45;87,05
2019-01-17 12:00;87,55
2019-01-17 12:15;90,6
2019-01-17 12:30;91,75
2019-01-17 12:45;100,8
2019-01-17 13:00;87,9
2019-01-17 13:15;88,65
2019-01-17 13:30;88,9
2019-01-17 13:45;89
2019-01-17 14:00;84,1
2019-01-17 14:15;80,75
2019-01-17 14:30;71,25
2019-01-17 14:45;76,55
2019-01-17 15:00;68,05
2019-01-17 15:15;74,3
2019-01-17 15:30;64,75
2019-01-17 15:45;70,55
2019-01-17 16:00;60,5
2019-01-17 16:15;64,45
2019-01-17 16:30;53
2019-01-17 16:45;61,2
2019-01-17 17:00;57,1
2019-01-17 17:15;50,15
2019-01-17 17:30;50,25
2019-01-17 17:45;43,4
2019-01-17 18:00;52
2019-01-17 18:15;35,15
2019-01-17 18:30;29,25
2019-01-17 18:45;25,6
2019-01-17 19:00;23,3
2019-01-17 19:15;23,1
2019-01-17 19:30;23,3
2019-01-17 19:45;22,5
2019-01-17 20:00;19,55
2019-01-17 20:15;18,15
2019-01-17 20:30;10,45
2019-01-17 20:45;10,15
2019-01-17 21:00;10,8
2019-01-17 21:15;13,5
2019-01-17 21:30;13,7
2019-01-17 21:45;12,15
2019-01-17 22:00;6,9
2019-01-17 22:15;5,45
2019-01-17 22:30;2,4
2019-01-17 22:45;0,75
2019-01-17 23:00;0,55
2019-01-17 23:15;0,2
2019-01-17 23:30;1,1
2019-01-17 23:45;1
2019-01-18 00:00;0
2019-01-18 00:15;0
2019-01-18 00:30;0,2
2019-01-18 00:45;5,9
2019-01-18 01:00;5,65
2019-01-18 01:15;6,7
2019-01-18 01:30;4,9
2019-01-18 01:45;13,65
2019-01-18 02:00;18,2
2019-01-18 02:15;20,4
2019-01-18 02:30;17,8
2019-01-18 02:45;18,6
2019-01-18 03:00;18,65
2019-01-18 03:15;18,55
2019-01-18 03:30;17,05
2019-01-18 03:45;21,95
2019-01-18 04:00;33,6
2019-01-18 04:15;33,35
2019-01-18 04:30;34,6
2019-01-18 04:45;34,45
2019-01-18 05:00;31,8
2019-01-18 05:15;25,5
2019-01-18 05:30;25,2
2019-01-18 05:45;26,65
2019-01-18 06:00;24,45
2019-01-18 06:15;23,1
2019-01-18 06:30;23,05
2019-01-18 06:45;21,45
2019-01-18 07:00;21,4
2019-01-18 07:15;21,1
2019-01-18 07:30;46,1
2019-01-18 07:45;56,2
2019-01-18 08:00;48,85
2019-01-18 08:15;39,05
2019-01-18 08:30;53,55
2019-01-18 08:45;48,95
2019-01-18 09:00;64,35
2019-01-18 09:15;56,95
2019-01-18 09:30;59,3
2019-01-18 09:45;60,3
2019-01-18 10:00;70,55
2019-01-18 10:15;60,05
2019-01-18 10:30;72,55
2019-01-18 10:45;77,95
2019-01-18 11:00;85,75
2019-01-18 11:15;77,95
2019-01-18 11:30;79,2
2019-01-18 11:45;77,05
2019-01-18 12:00;83,3
2019-01-18 12:15;71,05
2019-01-18 12:30;74,45
2019-01-18 12:45;76,2
2019-01-18 13:00;74,6
2019-01-18 13:15;68,25
2019-01-18 13:30;67,45
2019-01-18 13:45;67,15
2019-01-18 14:00;65,55
2019-01-18 14:15;76,45
2019-01-18 14:30;70,7
2019-01-18 14:45;62,75
2019-01-18 15:00;82,45
2019-01-18 15:15;63,4
2019-01-18 15:30;61,05
2019-01-18 15:45;67,65
2019-01-18 16:00;58,5
2019-01-18 16:15;59,4
2019-01-18 16:30;53
2019-01-18 16:45;47,5
2019-01-18 17:00;51,5
2019-01-18 17:15;51,3
2019-01-18 17:30;40,4
2019-01-18 17:45;39,8
2019-01-18 18:00;43,5
2019-01-18 18:15;33,65
2019-01-18 18:30;28,8
2019-01-18 18:45;27,25
2019-01-18 19:00;22,9
2019-01-18 19:15;20,05
2019-01-18 19:30;17,95
2019-01-18 19:45;17,35
2019-01-18 20:00;17,25
2019-01-18 20:15;17,7
2019-01-18 20:30;17,5
2019-01-18 20:45;14,45
2019-01-18 21:00;12,4
2019-01-18 21:15;13,3
2019-01-18 21:30;13,65
2019-01-18 21:45;4,55
2019-01-18 22:00;0,55
2019-01-18 22:15;0
2019-01-18 22:30;0,15
2019-01-18 22:45;0,05
2019-01-18 23:00;0,7
2019-01-18 23:15;0,05
2019-01-18 23:30;0,6
2019-01-18 23:45;1,45
2019-01-19 00:00;0,2
2019-01-19 00:15;0,5
2019-01-19 00:30;0,3
2019-01-19 00:45;0
2019-01-19 01:00;0
2019-01-19 01:15;0
2019-01-19 01:30;0
2019-01-19 01:45;0
2019-01-19 02:00;0
2019-01-19 02:15;0
2019-01-19 02:30;0
2019-01-19 02:45;0
2019-01-19 03:00;0,65
2019-01-19 03:15;2,95
2019-01-19 03:30;1,5
2019-01-19 03:45;1,45
2019-01-19 04:00;2,55
2019-01-19 04:15;0,9
2019-01-19 04:30;1,35
2019-01-19 04:45;2,85
2019-01-19 05:00;1,7
2019-01-19 05:15;2
2019-01-19 05:30;2,05
2019-01-19 05:45;2,1
2019-01-19 06:00;1,7
2019-01-19 06:15;1,1
2019-01-19 06:30;0,55
2019-01-19 06:45;0,6
2019-01-19 07:00;0,3
2019-01-19 07:15;1,1
2019-01-19 07:30;0,6
2019-01-19 07:45;0,5
2019-01-19 08:00;0,55
2019-01-19 08:15;0,2
2019-01-19 08:30;0,05
2019-01-19 08:45;0,05
2019-01-19 09:00;0
2019-01-19 09:15;1,05
2019-01-19 09:30;1,5
2019-01-19 09:45;4,95
2019-01-19 10:00;3,4
2019-01-19 10:15;3,55
2019-01-19 10:30;3,7
2019-01-19 10:45;5
2019-01-19 11:00;4,8
2019-01-19 11:15;5,2
2019-01-19 11:30;7,15
2019-01-19 11:45;8,1
2019-01-19 12:00;7,75
2019-01-19 12:15;8,55
2019-01-19 12:30;9,2
2019-01-19 12:45;10,25
2019-01-19 13:00;10,2
2019-01-19 13:15;8,85
2019-01-19 13:30;9,9
2019-01-19 13:45;9,7
2019-01-19 14:00;11,3
2019-01-19 14:15;11,6
2019-01-19 14:30;12,2
2019-01-19 14:45;14,05
2019-01-19 15:00;15,9
2019-01-19 15:15;17,55
2019-01-19 15:30;18,35
2019-01-19 15:45;17,5
2019-01-19 16:00;17,45
2019-01-19 16:15;16,15
2019-01-19 16:30;14,7
2019-01-19 16:45;17,1
2019-01-19 17:00;13,6
2019-01-19 17:15;11,75
2019-01-19 17:30;9,4
2019-01-19 17:45;10,4
2019-01-19 18:00;7,35
2019-01-19 18:15;8,15
2019-01-19 18:30;7,35
2019-01-19 18:45;9
2019-01-19 19:00;8
2019-01-19 19:15;7,65
2019-01-19 19:30;7,55
2019-01-19 19:45;7,5
2019-01-19 20:00;7,65
2019-01-19 20:15;7,3
2019-01-19 20:30;9,05
2019-01-19 20:45;8,7
2019-01-19 21:00;7,45
2019-01-19 21:15;7,65
2019-01-19 21:30;8,8
2019-01-19 21:45;5,55
2019-01-19 22:00;5,45
2019-01-19 22:15;3,1
2019-01-19 22:30;2,25
2019-01-19 22:45;0
2019-01-19 23:00;0,7
2019-01-19 23:15;0,05
2019-01-19 23:30;0,1
2019-01-19 23:45;0,2
2019-01-20 00:00;0
2019-01-20 00:15;0
2019-01-20 00:30;0
2019-01-20 00:45;0
2019-01-20 01:00;0
2019-01-20 01:15;0,1
2019-01-20 01:30;0,1
2019-01-20 01:45;0,4
2019-01-20 02:00;0,5
2019-01-20 02:15;0,25
2019-01-20 02:30;0
2019-01-20 02:45;0,35
2019-01-20 03:00;0,2
2019-01-20 03:15;0,1
2019-01-20 03:30;0,3
2019-01-20 03:45;0
2019-01-20 04:00;0,05
2019-01-20 04:15;0,7
2019-01-20 04:30;1,05
2019-01-20 04:45;1,75
2019-01-20 05:00;1,15
2019-01-20 05:15;1,2
2019-01-20 05:30;0,8
2019-01-20 05:45;1
2019-01-20 06:00;1,6
2019-01-20 06:15;1
2019-01-20 06:30;2,2
2019-01-20 06:45;1,1
2019-01-20 07:00;1
2019-01-20 07:15;1,35
2019-01-20 07:30;0,75
2019-01-20 07:45;0,4
2019-01-20 08:00;0,2
2019-01-20 08:15;0
2019-01-20 08:30;0,15
2019-01-20 08:45;0,25
2019-01-20 09:00;0,05
2019-01-20 09:15;0,1
2019-01-20 09:30;0
2019-01-20 09:45;0,25
2019-01-20 10:00;0,2
2019-01-20 10:15;1,8
2019-01-20 10:30;1,9
2019-01-20 10:45;1,15
2019-01-20 11:00;0,25
2019-01-20 11:15;0,7
2019-01-20 11:30;0
2019-01-20 11:45;0
2019-01-20 12:00;0
2019-01-20 12:15;0,3
2019-01-20 12:30;0,4
2019-01-20 12:45;2
2019-01-20 13:00;1,1
2019-01-20 13:15;0,7
2019-01-20 13:30;1,85
2019-01-20 13:45;2,2
2019-01-20 14:00;3,25
2019-01-20 14:15;3,9
2019-01-20 14:30;6,15
2019-01-20 14:45;5,5
2019-01-20 15:00;7,75
2019-01-20 15:15;7,7
2019-01-20 15:30;7,5
2019-01-20 15:45;7,1
2019-01-20 16:00;6,35
2019-01-20 16:15;6,05
2019-01-20 16:30;5,9
2019-01-20 16:45;6,85
2019-01-20 17:00;6,35
2019-01-20 17:15;5,7
2019-01-20 17:30;3,85
2019-01-20 17:45;2,7
2019-01-20 18:00;2,4
2019-01-20 18:15;6,5
2019-01-20 18:30;8,75
2019-01-20 18:45;7,35
2019-01-20 19:00;7,9
2019-01-20 19:15;7,4
2019-01-20 19:30;6,15
2019-01-20 19:45;6,8
2019-01-20 20:00;7,5
2019-01-20 20:15;7,7
2019-01-20 20:30;8,2
2019-01-20 20:45;7,45
2019-01-20 21:00;5,75
2019-01-20 21:15;6,1
2019-01-20 21:30;7,2
2019-01-20 21:45;5,3
2019-01-20 22:00;4,8
2019-01-20 22:15;4,95
2019-01-20 22:30;5,8
2019-01-20 22:45;1,9
2019-01-20 23:00;4,7
2019-01-20 23:15;0,15
2019-01-20 23:30;0,1
2019-01-20 23:45;0,4

